TimeEDT,TemperatureF,Dew PointF,Humidity,Sea Level PressureIn,VisibilityMPH,Wind Direction,Wind SpeedMPH,Gust SpeedMPH,PrecipitationIn,Events,Conditions,WindDirDegrees,DateUTC
12:15 AM,85.1,70.0,60,29.88,10.0,SW,9.2,19.6,N/A,,Clear,230,2013-09-10 04:15:00
12:35 AM,85.1,69.8,60,29.88,10.0,SW,10.4,23.0,N/A,,Clear,230,2013-09-10 04:35:00
12:55 AM,84.4,69.8,61,29.88,10.0,SW,15.0,21.9,N/A,,Clear,230,2013-09-10 04:55:00
1:15 AM,84.6,69.8,61,29.88,10.0,SW,11.5,21.9,N/A,,Clear,230,2013-09-10 05:15:00
1:35 AM,83.7,70.0,63,29.88,10.0,SW,13.8,19.6,N/A,,Clear,230,2013-09-10 05:35:00
1:55 AM,83.8,69.8,63,29.88,10.0,SW,15.0,20.7,N/A,,Clear,220,2013-09-10 05:55:00
2:14 AM,83.7,69.8,63,29.88,10.0,SW,12.7,20.7,N/A,,Clear,230,2013-09-10 06:14:00
2:35 AM,83.7,69.6,62,29.89,10.0,SW,12.7,25.3,N/A,,Clear,230,2013-09-10 06:35:00
2:55 AM,83.3,69.6,63,29.89,10.0,SW,13.8,24.2,N/A,,Clear,220,2013-09-10 06:55:00
3:14 AM,82.8,69.3,64,29.90,10.0,SW,13.8,21.9,N/A,,Clear,220,2013-09-10 07:14:00
3:35 AM,82.4,69.3,64,29.90,10.0,SW,13.8,25.3,N/A,,Clear,220,2013-09-10 07:35:00
3:55 AM,82.0,69.4,65,29.91,10.0,SW,11.5,21.9,N/A,,Clear,230,2013-09-10 07:55:00
4:15 AM,81.7,69.3,66,29.92,10.0,SW,13.8,-,N/A,,Clear,220,2013-09-10 08:15:00
4:35 AM,81.7,69.3,66,29.92,10.0,SW,11.5,18.4,N/A,,Clear,230,2013-09-10 08:35:00
4:54 AM,81.3,69.3,67,29.92,10.0,SW,10.4,19.6,N/A,,Clear,230,2013-09-10 08:54:00
5:15 AM,81.1,68.9,66,29.93,10.0,SW,11.5,19.6,N/A,,Clear,220,2013-09-10 09:15:00
5:35 AM,81.0,68.9,67,29.93,10.0,SW,8.1,17.3,N/A,,Clear,230,2013-09-10 09:35:00
5:54 AM,80.8,68.7,67,29.93,10.0,SW,8.1,17.3,N/A,,Clear,220,2013-09-10 09:54:00
6:15 AM,80.6,68.2,66,29.94,10.0,SW,8.1,17.3,N/A,,Clear,220,2013-09-10 10:15:00
6:35 AM,80.1,67.5,65,29.94,10.0,SW,11.5,-,N/A,,Clear,220,2013-09-10 10:35:00
6:54 AM,80.1,67.3,65,29.95,10.0,SW,9.2,-,N/A,,Clear,220,2013-09-10 10:54:00
7:15 AM,80.1,67.1,64,29.95,10.0,SW,11.5,17.3,N/A,,Clear,220,2013-09-10 11:15:00
7:35 AM,80.1,66.4,63,29.96,10.0,SW,9.2,17.3,N/A,,Clear,220,2013-09-10 11:35:00
7:55 AM,79.7,66.6,64,29.97,10.0,SW,9.2,-,N/A,,Clear,230,2013-09-10 11:55:00
8:15 AM,79.7,66.4,64,29.97,10.0,SW,10.4,-,N/A,,Clear,220,2013-09-10 12:15:00
8:35 AM,80.1,66.2,62,29.97,10.0,SW,8.1,-,N/A,,Clear,220,2013-09-10 12:35:00
8:55 AM,80.6,65.8,61,29.98,10.0,SW,10.4,16.1,N/A,,Clear,220,2013-09-10 12:55:00
9:15 AM,81.1,65.5,59,29.98,10.0,SW,10.4,16.1,N/A,,Clear,220,2013-09-10 13:15:00
9:35 AM,81.5,65.3,58,29.99,10.0,SW,10.4,-,N/A,,Clear,230,2013-09-10 13:35:00
9:55 AM,82.4,65.3,56,29.99,10.0,WSW,12.7,16.1,N/A,,Clear,240,2013-09-10 13:55:00
10:15 AM,82.6,64.8,55,30.00,10.0,SW,9.2,-,N/A,,Clear,230,2013-09-10 14:15:00
10:35 AM,82.8,64.8,54,30.00,10.0,WSW,11.5,16.1,N/A,,Clear,240,2013-09-10 14:35:00
10:55 AM,82.8,64.2,53,30.00,10.0,WSW,12.7,19.6,N/A,,Clear,240,2013-09-10 14:55:00
11:15 AM,83.3,63.7,51,30.01,10.0,WSW,13.8,23.0,N/A,,Clear,240,2013-09-10 15:15:00
11:35 AM,83.8,63.5,50,30.01,10.0,WSW,12.7,18.4,N/A,,Clear,240,2013-09-10 15:35:00
11:55 AM,84.0,62.8,49,30.00,10.0,WSW,13.8,19.6,N/A,,Clear,240,2013-09-10 15:55:00
12:15 PM,84.7,62.6,47,30.00,10.0,WSW,11.5,20.7,N/A,,Clear,240,2013-09-10 16:15:00
12:35 PM,85.6,62.8,46,30.01,10.0,WSW,10.4,17.3,N/A,,Clear,240,2013-09-10 16:35:00
12:55 PM,85.8,62.6,46,30.01,10.0,WSW,11.5,19.6,N/A,,Clear,240,2013-09-10 16:55:00
1:15 PM,86.4,62.4,45,30.01,10.0,WSW,12.7,19.6,N/A,,Clear,240,2013-09-10 17:15:00
1:35 PM,86.9,62.1,43,30.01,10.0,WSW,13.8,19.6,N/A,,Clear,240,2013-09-10 17:35:00
1:55 PM,88.2,62.1,41,30.00,10.0,SW,11.5,17.3,N/A,,Clear,230,2013-09-10 17:55:00
2:14 PM,88.7,61.5,40,30.00,10.0,WSW,9.2,17.3,N/A,,Clear,240,2013-09-10 18:14:00
2:35 PM,89.2,61.3,39,30.00,10.0,SW,11.5,-,N/A,,Clear,230,2013-09-10 18:35:00
2:55 PM,89.8,60.4,37,30.00,10.0,SW,13.8,17.3,N/A,,Clear,230,2013-09-10 18:55:00
3:14 PM,90.5,60.8,37,30.00,10.0,SW,12.7,18.4,N/A,,Clear,220,2013-09-10 19:14:00
3:35 PM,90.5,60.3,36,29.99,10.0,SW,13.8,21.9,N/A,,Clear,220,2013-09-10 19:35:00
3:55 PM,90.9,60.1,35,29.99,10.0,SW,13.8,19.6,N/A,,Clear,220,2013-09-10 19:55:00
4:14 PM,91.4,59.7,34,29.99,10.0,SW,11.5,20.7,N/A,,Clear,230,2013-09-10 20:14:00
4:35 PM,91.4,59.4,34,29.99,10.0,WSW,11.5,19.6,N/A,,Clear,240,2013-09-10 20:35:00
4:55 PM,91.4,59.7,34,29.99,10.0,SW,6.9,-,N/A,,Clear,230,2013-09-10 20:55:00
5:14 PM,91.0,59.0,34,29.98,10.0,SW,9.2,-,N/A,,Clear,230,2013-09-10 21:14:00
5:35 PM,90.5,58.5,34,29.98,10.0,SW,10.4,16.1,N/A,,Clear,230,2013-09-10 21:35:00
5:55 PM,90.0,60.1,37,29.98,10.0,WSW,3.5,-,N/A,,Clear,240,2013-09-10 21:55:00
6:14 PM,89.4,59.4,36,29.98,10.0,WSW,8.1,-,N/A,,Clear,240,2013-09-10 22:14:00
6:35 PM,88.7,59.4,37,29.98,10.0,WSW,6.9,-,N/A,,Clear,240,2013-09-10 22:35:00
6:54 PM,88.0,61.2,40,29.98,10.0,SW,4.6,-,N/A,,Clear,230,2013-09-10 22:54:00
7:15 PM,86.9,61.5,42,29.98,10.0,SW,4.6,-,N/A,,Clear,230,2013-09-10 23:15:00
7:35 PM,85.5,61.3,44,29.98,10.0,SSW,4.6,-,N/A,,Clear,200,2013-09-10 23:35:00
7:54 PM,83.1,62.8,50,29.98,10.0,South,3.5,-,N/A,,Clear,190,2013-09-10 23:54:00
8:15 PM,81.7,63.0,53,29.99,10.0,South,3.5,-,N/A,,Clear,190,2013-09-11 00:15:00
8:35 PM,80.6,63.5,56,29.99,10.0,South,4.6,-,N/A,,Clear,190,2013-09-11 00:35:00
8:55 PM,79.3,64.4,60,30.00,10.0,South,3.5,-,N/A,,Clear,190,2013-09-11 00:55:00
9:15 PM,78.4,63.9,61,30.01,10.0,Calm,Calm,-,N/A,,Clear,0,2013-09-11 01:15:00
9:35 PM,78.3,64.2,62,30.01,10.0,Calm,Calm,-,N/A,,Clear,0,2013-09-11 01:35:00
9:55 PM,78.6,63.9,60,30.01,10.0,SSW,3.5,-,N/A,,Clear,200,2013-09-11 01:55:00
10:15 PM,79.7,63.7,58,30.01,10.0,SSW,4.6,-,N/A,,Clear,210,2013-09-11 02:15:00
10:35 PM,80.8,63.9,56,30.01,10.0,SW,5.8,-,N/A,,Clear,220,2013-09-11 02:35:00
10:55 PM,79.5,64.4,60,30.00,10.0,South,3.5,-,N/A,,Clear,190,2013-09-11 02:55:00
11:15 PM,75.9,65.1,69,30.01,10.0,South,4.6,-,N/A,,Clear,190,2013-09-11 03:15:00
11:35 PM,77.2,64.4,65,30.00,10.0,SSW,3.5,-,N/A,,Clear,200,2013-09-11 03:35:00
11:55 PM,77.9,64.4,63,30.00,10.0,SSW,4.6,-,N/A,,Clear,200,2013-09-11 03:55:00